TimeCDT,TemperatureF,Dew PointF,Humidity,Sea Level PressureIn,VisibilityMPH,Wind Direction,Wind SpeedMPH,Gust SpeedMPH,PrecipitationIn,Events,Conditions,WindDirDegrees,DateUTC
12:58 AM,64.9,64.8,99,30.01,10.0,Calm,Calm,-,N/A,,Clear,0,2013-06-14 05:58:00
1:58 AM,62.8,62.8,100,30.03,10.0,NNW,2.3,-,N/A,,Clear,340,2013-06-14 06:58:00
2:58 AM,63.3,63.3,100,30.03,10.0,Calm,Calm,-,N/A,,Clear,0,2013-06-14 07:58:00
3:58 AM,61.7,61.7,100,30.03,9.0,South,3.5,-,N/A,,Clear,180,2013-06-14 08:58:00
4:58 AM,62.1,62.1,100,30.04,10.0,South,2.3,-,N/A,,Clear,180,2013-06-14 09:58:00
5:58 AM,61.2,61.2,100,30.04,10.0,South,2.3,-,N/A,,Clear,170,2013-06-14 10:58:00
6:58 AM,65.3,65.3,100,30.05,10.0,SE,3.5,-,N/A,,Clear,130,2013-06-14 11:58:00
7:58 AM,69.4,64.2,83,30.05,10.0,SE,5.8,-,N/A,,Clear,130,2013-06-14 12:58:00
8:58 AM,72.3,63.0,72,30.06,10.0,SSE,6.9,-,N/A,,Clear,150,2013-06-14 13:58:00
9:58 AM,75.6,62.4,64,30.07,10.0,SE,4.6,-,N/A,,Clear,130,2013-06-14 14:58:00
10:58 AM,79.0,61.0,54,30.05,10.0,SE,9.2,-,N/A,,Clear,140,2013-06-14 15:58:00
11:58 AM,81.0,60.3,49,30.05,10.0,SE,8.1,-,N/A,,Partly Cloudy,130,2013-06-14 16:58:00
12:58 PM,81.9,62.4,52,30.05,10.0,SE,8.1,-,N/A,,Scattered Clouds,140,2013-06-14 17:58:00
1:58 PM,83.5,63.9,51,30.04,10.0,SSE,5.8,-,N/A,,Clear,150,2013-06-14 18:58:00
2:58 PM,84.4,64.0,50,30.03,10.0,ESE,5.8,-,N/A,,Clear,120,2013-06-14 19:58:00
3:58 PM,84.6,64.0,50,30.03,10.0,East,5.8,-,N/A,,Clear,80,2013-06-14 20:58:00
4:58 PM,83.8,65.1,53,30.00,10.0,East,10.4,-,N/A,,Partly Cloudy,100,2013-06-14 21:58:00
5:58 PM,83.5,65.3,54,29.98,10.0,SE,9.2,-,N/A,,Clear,130,2013-06-14 22:58:00
6:58 PM,81.7,66.4,60,29.98,10.0,ESE,6.9,-,N/A,,Clear,120,2013-06-14 23:58:00
7:58 PM,79.0,67.5,68,29.98,10.0,SE,6.9,-,N/A,,Clear,130,2013-06-15 00:58:00
8:58 PM,74.1,67.8,81,29.99,10.0,SSE,4.6,-,N/A,,Clear,150,2013-06-15 01:58:00
9:58 PM,71.6,66.7,85,30.01,10.0,SSE,6.9,-,N/A,,Clear,150,2013-06-15 02:58:00
10:58 PM,70.7,66.6,87,30.03,10.0,SSE,6.9,-,N/A,,Clear,150,2013-06-15 03:58:00
11:58 PM,68.5,65.8,91,30.01,10.0,SSE,8.1,-,N/A,,Clear,160,2013-06-15 04:58:00